Página principal
METAR-TAF:

METAR-TAF

Aeroportos :

Ardmore Downtown Executive Airport

Ardmore, Oklahoma, Estados Unidos

latitude: 34-08-49N, longitude: 097-07-21W, altura: 257 m

Observação actual do tempo

O boletim foi feito há 19 minutos, às 17:55 UTC
Vento 6 kt de este
Temperatura 7°C
Humidade 93%
Pressão 1017 hPa
Visibilidade: 11.3 km
Encobertoa uma altura de 400 ft

METAR: K1F0 221755Z AUTO 10006KT 7SM OVC004 07/06 A3004 RMK AO2

Hora: 12:14 (18:14 UTC)


TAF: em falta

Observações e previsões do tempo de mais de 4000 aeroportos (mensagens METAR e TAF).

As estações disponíveis são os pontos amarelos e vermelhos sobre o mapa.

Mova o rato sobre o mapa para ver o nome da estação.

Depois clique no ponto para visualizar as observações e previsões meteorológicas.

Para alterar o mapa : clique nos botões verdes com uma cruz preta para aumentar o zoom; no botão verde com uma pitada de zoom; ou nas setas verdes para mapas adjacentes.


METAR-TAF: